Vorticity
13 11 6 3 3 5 4 11 7 4 3 5 6 6 9 16 17 13 11 8 7 11 20 21 19 19 22 23 16 8 6 11
13 8 4 2 2 7 10 7 4 3 5 4 8 11 15 14 11 11 9 8 13 23 19 18 20 24 14 6 6 11 18 12
6 8 3 5 10 8 7 3 4 5 5 10 13 14 13 10 9 8 10 20 21 16 20 22 20 8 6 8 14 14 14 17
7 8 4 11 8 6 4 4 5 6 9 12 15 13 7 8 10 16 23 16 18 21 22 18 5 6 9 14 12 16 16 13
2 9 8 8 6 4 4 5 6 11 12 15 12 5 11 16 21 19 13 20 21 22 14 4 6 11 13 12 16 13 12 10
7 9 8 4 3 5 4 6 10 12 15 9 8 10 15 19 14 15 24 22 23 8 4 6 11 13 14 14 12 14 10 9
9 8 4 3 6 4 6 8 13 17 8 7 7 10 16 12 19 26 21 21 6 4 7 12 13 14 12 13 12 11 14 14
8 4 3 5 6 7 7 12 16 11 7 6 8 14 12 24 28 19 20 6 6 7 13 14 12 13 14 13 13 12 11 11
4 3 6 6 8 7 10 12 15 7 7 8 11 11 28 31 15 21 6 7 8 12 14 13 14 11 12 13 11 12 13 14
4 6 7 6 7 9 9 24 7 7 7 10 13 27 31 13 20 5 8 8 12 14 14 13 10 13 15 12 14 14 13 14
6 7 7 6 9 10 27 8 6 6 10 13 18 33 16 19 6 6 8 10 13 13 13 10 12 14 13 17 16 16 19 16
7 7 6 11 7 13 18 6 6 6 11 13 33 21 18 9 6 8 10 12 11 13 12 11 15 17 14 11 11 11 9 9
7 5 11 9 10 26 7 7 4 7 11 19 31 20 10 8 8 9 11 11 11 14 11 15 12 13 14 14 14 12 10 11
6 9 9 9 13 24 6 9 3 8 10 25 28 4 10 9 9 11 10 9 12 13 12 8 6 11 13 15 15 15 14 12
6 10 9 10 23 10 7 7 4 9 10 30 23 4 9 8 9 11 9 9 11 13 12 10 9 8 8 10 14 12 12 11
9 6 9 13 31 5 7 8 6 8 11 29 20 6 9 7 10 11 9 9 9 10 12 14 15 11 9 10 10 8 8 11
7 7 12 18 21 5 8 11 7 8 12 23 22 9 9 7 10 10 10 9 8 6 7 8 9 18 20 19 13 12 17 18
3 9 14 29 6 5 10 12 9 8 12 16 30 13 8 8 8 9 10 10 11 11 13 10 8 15 12 8 7 9 13 15
4 10 18 33 4 6 9 14 11 8 9 15 25 18 9 9 8 8 9 10 11 14 15 17 17 10 15 12 4 7 6 18
Height
5794 5789 5783 5777 5771 5764 5757 5749 5739 5730 5721 5711 5699 5687 5675 5662 5650 5640 5630 5618 5607 5596 5583 5572 5563 5555 5547 5540 5534 5529 5523 5518
5789 5784 5777 5772 5765 5757 5749 5741 5732 5722 5711 5700 5687 5674 5661 5649 5638 5627 5616 5604 5592 5580 5570 5560 5551 5543 5537 5531 5525 5520 5513 5507
5784 5779 5773 5766 5758 5750 5743 5734 5725 5713 5701 5688 5675 5662 5650 5639 5626 5613 5601 5589 5578 5567 5557 5549 5542 5536 5529 5522 5514 5508 5502 5496
5779 5773 5767 5760 5753 5744 5736 5726 5715 5704 5691 5678 5665 5653 5640 5628 5614 5600 5587 5576 5566 5556 5548 5541 5535 5528 5520 5512 5505 5498 5493 5488
5774 5768 5761 5755 5748 5739 5729 5719 5707 5694 5682 5669 5657 5644 5630 5615 5601 5588 5577 5565 5556 5548 5541 5534 5527 5519 5511 5504 5497 5490 5484 5480
5770 5763 5756 5749 5741 5732 5721 5710 5698 5686 5674 5661 5648 5632 5617 5603 5591 5579 5567 5558 5549 5543 5536 5528 5520 5512 5504 5496 5489 5482 5476 5471
5765 5759 5752 5743 5735 5725 5715 5703 5691 5678 5666 5652 5638 5623 5608 5595 5583 5571 5562 5553 5546 5538 5530 5522 5513 5505 5497 5489 5482 5475 5469 5463
5761 5755 5747 5739 5729 5718 5706 5695 5682 5671 5658 5644 5629 5614 5599 5586 5575 5566 5557 5550 5542 5534 5525 5516 5508 5500 5491 5483 5476 5468 5461 5455
5758 5751 5742 5734 5724 5712 5700 5687 5676 5665 5652 5636 5621 5606 5592 5580 5570 5562 5555 5547 5538 5529 5520 5512 5503 5494 5486 5478 5470 5462 5455 5448
5754 5746 5737 5728 5718 5707 5694 5683 5672 5660 5645 5629 5614 5600 5587 5577 5568 5560 5553 5544 5535 5526 5517 5508 5498 5490 5481 5473 5465 5457 5449 5442
5750 5742 5733 5723 5712 5701 5689 5679 5668 5655 5640 5624 5609 5595 5584 5575 5567 5559 5550 5541 5532 5523 5514 5504 5495 5486 5478 5469 5460 5452 5444 5436
5746 5739 5729 5719 5708 5696 5686 5676 5664 5651 5636 5620 5604 5592 5583 5575 5567 5558 5548 5539 5530 5521 5512 5502 5492 5483 5473 5464 5455 5446 5438 5431
5743 5735 5726 5715 5703 5692 5684 5673 5661 5648 5632 5616 5602 5592 5584 5576 5567 5557 5548 5538 5529 5520 5510 5500 5490 5480 5470 5461 5452 5443 5434 5426
5741 5732 5723 5711 5700 5689 5681 5670 5658 5645 5630 5614 5601 5593 5585 5576 5566 5557 5547 5538 5529 5519 5508 5497 5487 5478 5468 5458 5448 5439 5430 5422
5739 5730 5720 5709 5697 5688 5678 5668 5657 5644 5628 5613 5601 5594 5585 5576 5566 5557 5547 5538 5529 5519 5507 5496 5485 5475 5465 5456 5447 5438 5428 5418
5737 5727 5716 5705 5694 5686 5677 5667 5656 5643 5628 5613 5602 5594 5585 5576 5567 5558 5548 5538 5529 5519 5509 5498 5487 5476 5464 5454 5444 5434 5422 5413
5734 5724 5714 5703 5693 5685 5676 5666 5655 5642 5629 5614 5602 5595 5586 5577 5568 5559 5549 5539 5529 5520 5510 5499 5488 5477 5467 5456 5445 5434 5422 5411
5731 5722 5711 5700 5692 5685 5676 5666 5655 5643 5630 5616 5604 5596 5587 5578 5570 5560 5551 5542 5533 5523 5512 5501 5490 5478 5465 5454 5440 5428 5417 5406
5730 5720 5709 5699 5692 5685 5676 5666 5656 5645 5632 5618 5606 5597 5588 5580 5571 5562 5553 5545 5535 5525 5515 5504 5492 5479 5468 5454 5438 5426 5414 5402